LRFT Weather Reports


time (UTC)temp
C
wind
direction
speed
KPH
gust
KPH
rain 1hr
cm
rain 24hr
cm
rain mn
cm
humidity
%
barometer
mb
20260507090400 -17 0.0 0.0 0.00 0.00 0.00
20260507084900 17 140 22.5 0.0 0.00 0.00 0.00 68 1017.0
20260507083400 17 140 22.5 0.0 0.00 0.00 0.00 68 1017.0
20260507081900 17 140 22.5 0.0 0.00 0.00 0.00 68 1017.0
20260507080400 17 140 22.5 0.0 0.00 0.00 0.00 68 1017.0
20260507074900 13 140 17.7 0.0 0.00 0.00 0.00 77 1018.0
20260507073359 13 140 17.7 0.0 0.00 0.00 0.00 77 1018.0
20260507071900 13 140 17.7 0.0 0.00 0.00 0.00 77 1018.0
20260507070359 13 140 17.7 0.0 0.00 0.00 0.00 77 1018.0
20260507064900 11 140 14.5 0.0 0.00 0.00 0.00 88 1018.0
20260507063400 11 140 14.5 0.0 0.00 0.00 0.00 88 1018.0
20260507061909 11 140 14.5 0.0 0.00 0.00 0.00 88 1018.0
20260507060400 11 140 14.5 0.0 0.00 0.00 0.00 88 1018.0
20260507054900 5 110 9.7 0.0 0.00 0.00 0.00 100 1017.0
20260507053407 5 110 9.7 0.0 0.00 0.00 0.00 100 1017.0
20260507051900 5 110 9.7 0.0 0.00 0.00 0.00 100 1017.0
20260507050359 -17 0.0 0.0 0.00 0.00 0.00
20260507044853 5 110 14.5 0.0 0.00 0.00 0.00 100 1017.0
20260507043359 5 110 14.5 0.0 0.00 0.00 0.00 100 1017.0
20260507041900 5 110 14.5 0.0 0.00 0.00 0.00 100 1017.0
20260507040359 5 110 14.5 0.0 0.00 0.00 0.00 100 1017.0
20260507034856 5 110 14.5 0.0 0.00 0.00 0.00 100 1017.0
20260507033359 -17 0.0 0.0 0.00 0.00 0.00
20260507031856 -17 0.0 0.0 0.00 0.00 0.00
20260507030359 -17 0.0 0.0 0.00 0.00 0.00
20260507024856 6 110 9.7 0.0 0.00 0.00 0.00 100 1017.0
20260507023359 6 110 9.7 0.0 0.00 0.00 0.00 100 1017.0
20260507021900 -17 0.0 0.0 0.00 0.00 0.00
20260507020359 -17 0.0 0.0 0.00 0.00 0.00
20260507014859 7 110 9.7 0.0 0.00 0.00 0.00 100 1017.0
20260507013359 7 110 9.7 0.0 0.00 0.00 0.00 100 1017.0
20260507011859 7 110 9.7 0.0 0.00 0.00 0.00 100 1017.0
20260507010400 7 110 9.7 0.0 0.00 0.00 0.00 100 1017.0
20260507004859 7 110 9.7 0.0 0.00 0.00 0.00 100 1017.0
20260507003400 7 110 9.7 0.0 0.00 0.00 0.00 100 1017.0
20260507001859 7 110 9.7 0.0 0.00 0.00 0.00 100 1017.0
20260507000359 7 110 9.7 0.0 0.00 0.00 0.00 100 1017.0
20260506234859 7 110 9.7 0.0 0.00 0.00 0.00 100 1017.0
20260506233359 7 110 9.7 0.0 0.00 0.00 0.00 100 1017.0
20260506231857 7 110 9.7 0.0 0.00 0.00 0.00 100 1017.0
20260506230359 7 110 9.7 0.0 0.00 0.00 0.00 100 1017.0
20260506224856 7 110 11.3 0.0 0.00 0.00 0.00 100 1017.0
20260506223359 7 110 11.3 0.0 0.00 0.00 0.00 100 1017.0
20260506221859 7 110 11.3 0.0 0.00 0.00 0.00 100 1017.0
20260506220359 -17 0.0 0.0 0.00 0.00 0.00
20260506214912 7 110 14.5 0.0 0.00 0.00 0.00 100 1016.0
20260506213400 7 110 14.5 0.0 0.00 0.00 0.00 100 1016.0
20260506211853 7 110 14.5 0.0 0.00 0.00 0.00 100 1016.0
20260506210359 7 110 14.5 0.0 0.00 0.00 0.00 100 1016.0
20260506204900 8 110 14.5 0.0 0.00 0.00 0.00 100 1016.0
20260506203359 8 110 14.5 0.0 0.00 0.00 0.00 100 1016.0
20260506201853 8 110 14.5 0.0 0.00 0.00 0.00 100 1016.0
20260506200359 8 110 14.5 0.0 0.00 0.00 0.00 100 1016.0
20260506194916 11 110 14.5 0.0 0.00 0.00 0.00 94 1016.0
20260506193423 11 110 14.5 0.0 0.00 0.00 0.00 94 1016.0
20260506191900 11 110 14.5 0.0 0.00 0.00 0.00 94 1016.0
20260506190400 11 110 14.5 0.0 0.00 0.00 0.00 94 1016.0
20260506184902 12 110 14.5 0.0 0.00 0.00 0.00 82 1015.0
20260506183359 12 110 14.5 0.0 0.00 0.00 0.00 82 1015.0
20260506181900 12 110 14.5 0.0 0.00 0.00 0.00 82 1015.0
20260506180400 -17 0.0 0.0 0.00 0.00 0.00
20260506174900 17 130 14.5 0.0 0.00 0.00 0.00 56 1015.0
20260506173359 17 130 14.5 0.0 0.00 0.00 0.00 56 1015.0
20260506171900 17 130 14.5 0.0 0.00 0.00 0.00 56 1015.0
20260506170359 17 130 14.5 0.0 0.00 0.00 0.00 56 1015.0
20260506164859 20 130 17.7 0.0 0.00 0.00 0.00 49 1015.0
20260506163359 20 130 17.7 0.0 0.00 0.00 0.00 49 1015.0
20260506161900 20 130 17.7 0.0 0.00 0.00 0.00 49 1015.0
20260506160359 20 130 17.7 0.0 0.00 0.00 0.00 49 1015.0
20260506154900 21 140 22.5 0.0 0.00 0.00 0.00 40 1015.0
20260506153359 21 140 22.5 0.0 0.00 0.00 0.00 40 1015.0
20260506151859 21 140 22.5 0.0 0.00 0.00 0.00 40 1015.0
20260506150405 21 140 22.5 0.0 0.00 0.00 0.00 40 1015.0
20260506144900 22 140 22.5 0.0 0.00 0.00 0.00 44 1015.0
20260506143411 22 140 22.5 0.0 0.00 0.00 0.00 44 1015.0
20260506141859 22 140 22.5 0.0 0.00 0.00 0.00 44 1015.0
20260506140523 -17 0.0 0.0 0.00 0.00 0.00
20260506134924 21 120 25.7 0.0 0.00 0.00 0.00 43 1015.0
20260506133359 21 120 25.7 0.0 0.00 0.00 0.00 43 1015.0
20260506131856 21 120 25.7 0.0 0.00 0.00 0.00 43 1015.0
20260506130408 21 120 25.7 0.0 0.00 0.00 0.00 43 1015.0
20260506124900 22 130 17.7 0.0 0.00 0.00 0.00 41 1016.0
20260506123359 22 130 17.7 0.0 0.00 0.00 0.00 41 1016.0
20260506121900 22 130 17.7 0.0 0.00 0.00 0.00 41 1016.0
20260506120359 22 130 17.7 0.0 0.00 0.00 0.00 41 1016.0
20260506114859 21 150 17.7 0.0 0.00 0.00 0.00 50 1016.0
20260506113400 21 150 17.7 0.0 0.00 0.00 0.00 50 1016.0
20260506111859 21 150 17.7 0.0 0.00 0.00 0.00 50 1016.0
20260506110359 21 150 17.7 0.0 0.00 0.00 0.00 50 1016.0
20260506104859 21 120 22.5 0.0 0.00 0.00 0.00 43 1017.0
20260506103400 21 120 22.5 0.0 0.00 0.00 0.00 43 1017.0
20260506101900 21 120 22.5 0.0 0.00 0.00 0.00 43 1017.0
20260506100400 21 120 22.5 0.0 0.00 0.00 0.00 43 1017.0
20260506094900 20 130 11.3 0.0 0.00 0.00 0.00 43 1016.0
20260506093359 20 130 11.3 0.0 0.00 0.00 0.00 43 1016.0
20260506091859 20 130 11.3 0.0 0.00 0.00 0.00 43 1016.0